Date,TemperatureHighF,TemperatureAvgF,TemperatureLowF,DewpointHighF,DewpointAvgF,DewpointLowF,HumidityHigh,HumidityAvg,HumidityLow,PressureMaxIn,PressureMinIn,WindSpeedMaxMPH,WindSpeedAvgMPH,GustSpeedMaxMPH,PrecipitationSumIn
2013-1-1,45.3,41.2,37.1,32.9,30.7,26.7,72,66,60,30.03,29.90,7,0,7,0.00
2013-1-2,38.9,33.9,27.9,30.3,22.0,17.4,74,62,45,30.25,30.00,11,0,11,0.00
2013-1-3,39.9,30.8,24.4,23.4,21.1,19.1,86,68,46,30.27,30.15,7,0,7,0.00
2013-1-4,43.9,35.4,26.5,26.8,24.3,22.5,92,65,48,30.21,30.09,12,1,12,0.00
2013-1-5,45.0,37.9,32.5,32.5,26.7,23.3,83,65,50,30.38,30.14,9,0,9,0.00
2013-1-6,52.8,43.2,31.5,35.4,32.8,29.5,94,69,45,30.21,30.02,9,0,9,0.00
2013-1-7,48.7,41.2,29.8,32.5,30.1,26.4,88,65,49,30.44,30.14,13,0,13,0.00
2013-1-8,53.7,39.3,27.9,37.8,32.2,25.5,93,77,49,30.44,30.36,9,1,9,0.00
2013-1-9,35.7,33.5,31.6,33.1,31.4,29.7,93,92,89,30.39,30.37,0,0,0,0.00
2013-1-10,45.4,42.4,39.5,34.3,33.7,33.0,79,71,63,30.54,30.51,0,0,0,0.00
2013-1-11,44.9,41.0,35.2,43.1,37.6,31.8,98,88,78,30.51,30.10,5,0,5,0.00
2013-1-12,56.9,46.8,42.8,50.0,44.6,41.9,98,92,77,30.18,30.10,6,0,6,0.05
2013-1-13,49.6,45.5,41.5,49.6,45.2,40.5,100,99,95,30.15,29.98,4,0,5,0.01
2013-1-14,56.9,50.4,41.5,56.8,47.2,37.8,100,90,65,30.30,29.95,7,0,7,0.17
2013-1-15,41.6,39.5,36.3,40.2,38.6,35.4,98,96,94,30.35,30.16,7,0,7,0.72
2013-1-16,41.3,38.3,35.4,40.8,37.7,34.9,98,98,97,30.16,29.83,11,0,11,0.40
2013-1-17,44.6,41.4,38.5,41.4,36.4,32.2,99,83,67,30.14,29.97,6,0,6,0.01
2013-1-18,38.6,34.6,28.4,33.2,22.3,13.2,88,62,37,30.51,30.02,11,1,11,0.00
2013-1-19,55.4,43.3,32.0,33.0,28.5,18.9,76,57,39,30.43,29.96,14,3,14,0.00
2013-1-20,59.8,47.3,34.9,36.5,27.7,17.3,65,48,27,30.10,29.81,15,2,15,0.00
2013-1-21,42.6,35.2,30.5,34.5,22.7,15.3,74,60,52,30.12,29.80,11,1,11,0.00
2013-1-22,30.5,22.5,17.4,15.9,3.6,-0.6,54,44,34,30.31,29.91,16,1,16,0.00
2013-1-23,26.1,21.0,14.1,10.7,4.3,1.8,66,49,37,30.36,30.16,10,1,10,0.00
2013-1-24,28.2,21.9,17.0,16.9,11.5,5.8,90,66,39,30.52,30.12,12,1,12,0.04
2013-1-25,24.3,19.9,15.3,19.1,11.6,5.9,90,71,47,30.52,30.08,9,0,9,0.00
2013-1-26,34.1,26.5,21.1,22.2,20.3,18.1,90,78,58,30.44,30.09,7,0,9,0.05
2013-1-27,38.7,27.6,18.9,25.6,21.2,16.6,93,78,50,30.61,30.44,6,0,6,0.02
2013-1-28,40.3,35.2,27.9,38.3,32.7,25.5,100,91,76,30.52,30.05,10,1,10,0.15
2013-1-29,63.1,47.0,32.6,52.9,43.0,31.8,100,87,65,30.14,30.00,7,0,7,0.00
2013-1-30,69.7,55.6,44.1,62.9,53.1,43.2,100,92,77,30.00,29.25,23,2,23,0.52
2013-1-31,60.0,44.4,29.0,60.0,30.8,14.7,100,60,36,29.93,29.15,18,3,18,0.66
2013-2-1,33.2,27.7,21.3,27.2,15.1,7.4,91,60,43,30.38,29.82,18,1,18,0.01
2013-2-2,31.7,25.4,18.2,26.6,14.8,8.1,92,65,42,30.39,30.03,11,1,11,0.00
2013-2-3,35.6,29.9,23.1,29.2,26.2,21.6,96,86,68,30.03,29.84,13,0,13,0.01
2013-2-4,36.2,30.8,23.8,27.4,18.2,13.1,77,59,49,30.12,29.91,13,1,13,0.00
2013-2-5,38.4,34.7,30.2,31.5,29.8,26.0,92,83,67,29.95,29.86,6,0,6,0.00
2013-2-6,45.4,36.7,28.5,33.6,28.7,23.8,95,74,53,30.37,29.94,11,1,11,0.00
2013-2-7,38.9,33.4,26.4,31.9,26.5,23.1,89,76,60,30.47,30.21,8,1,8,0.00
2013-2-8,42.6,38.1,34.1,41.5,35.1,24.5,98,89,66,30.21,29.73,16,1,16,0.25
2013-2-9,40.7,33.5,27.8,25.1,20.8,18.9,74,60,46,30.40,29.90,18,2,18,0.00
2013-2-10,42.7,33.1,22.0,34.3,21.8,15.7,90,65,34,30.50,30.25,9,1,10,0.00
2013-2-11,55.1,46.3,37.8,51.9,44.5,34.3,99,94,69,30.26,29.69,13,2,13,0.45
2013-2-12,55.9,47.1,37.7,39.9,33.0,29.8,81,59,40,30.00,29.82,14,1,14,0.00
2013-2-13,45.6,37.1,30.5,36.7,32.0,28.1,97,82,61,29.98,29.67,9,0,9,0.18
2013-2-14,50.1,38.7,31.8,35.7,32.3,25.1,98,80,39,30.03,29.78,8,0,8,0.09
2013-2-15,56.3,44.4,34.2,42.2,36.9,31.4,94,76,54,30.05,29.90,10,1,10,0.09
2013-2-16,38.2,36.2,33.1,36.5,32.1,20.4,97,85,59,30.03,29.81,6,0,6,0.06
2013-2-17,33.9,29.4,24.8,21.3,16.0,10.8,71,57,43,30.20,29.81,18,2,18,0.00
2013-2-18,41.6,31.2,21.9,30.7,16.0,9.4,82,55,31,30.39,30.18,9,1,9,0.00
2013-2-19,45.7,40.6,34.6,42.9,33.3,23.7,92,76,57,30.18,29.73,16,2,16,0.08
2013-2-20,38.7,33.2,26.1,25.1,18.4,12.3,61,54,47,30.16,29.85,14,2,14,0.00
2013-2-21,39.2,31.1,24.7,21.1,17.5,13.8,67,57,46,30.33,30.12,15,1,15,0.00
2013-2-22,34.2,32.1,29.6,32.0,25.5,19.6,95,77,66,30.40,30.22,9,0,9,0.02
2013-2-23,45.6,39.9,33.3,45.3,39.3,32.0,99,98,95,30.22,29.81,7,0,7,0.12
2013-2-24,51.8,43.0,33.2,43.0,34.1,23.2,100,73,44,30.11,29.79,12,1,12,0.00
2013-2-25,47.8,37.3,28.1,30.0,26.4,22.5,86,66,46,30.24,30.10,9,0,9,0.00
2013-2-26,43.6,36.8,28.9,42.6,33.6,26.1,97,88,74,30.24,29.72,23,2,23,0.51
2013-2-27,48.1,45.4,43.1,38.2,37.7,36.9,81,74,66,29.69,29.65,0,0,0,0.05
2013-2-28,48.8,43.7,40.8,39.7,33.8,27.8,92,69,45,29.73,29.63,10,1,10,0.01
2013-3-1,46.0,42.1,37.0,34.7,31.4,26.7,78,66,56,29.87,29.71,11,1,11,0.00
2013-3-2,38.9,35.4,31.5,27.4,25.1,22.6,77,66,57,29.88,29.80,8,1,9,0.00
2013-3-3,39.3,34.6,30.0,24.6,23.0,21.5,74,63,54,29.90,29.79,12,1,12,0.00
2013-3-4,43.5,35.4,28.6,24.2,21.1,18.1,70,56,44,30.03,29.90,14,1,14,0.00
2013-3-5,48.7,37.1,25.5,31.9,25.1,20.9,92,64,33,30.09,29.84,10,1,10,0.00
2013-3-6,40.9,37.6,34.3,38.1,35.5,29.8,99,93,68,29.97,29.63,26,3,26,1.00
2013-3-7,50.1,42.6,35.1,33.0,30.2,27.4,81,62,47,30.14,29.97,14,1,14,0.00
2013-3-8,48.6,42.2,34.1,31.6,29.1,25.6,80,60,49,30.26,30.11,18,2,18,0.00
2013-3-9,61.9,45.0,34.5,32.1,27.1,23.6,75,52,24,30.34,30.24,7,0,7,0.00
2013-3-10,59.0,46.0,31.2,41.8,29.7,16.3,91,59,21,30.35,30.24,10,1,11,0.00
2013-3-11,56.8,49.4,43.4,50.4,45.4,40.8,95,86,78,30.28,29.96,14,1,14,0.00
2013-3-12,59.2,52.0,42.3,55.9,47.1,33.8,99,84,62,29.98,29.71,18,2,18,0.60
2013-3-13,50.9,41.8,32.4,36.7,29.8,22.1,94,65,35,30.06,29.89,13,1,13,0.00
2013-3-14,45.3,38.3,32.5,22.8,20.5,17.3,65,49,34,30.11,30.01,8,2,18,0.00
2013-3-15,56.2,42.6,28.8,35.0,26.4,20.4,83,55,34,30.09,29.78,14,1,14,0.00
2013-3-16,56.4,45.2,38.7,41.8,36.7,33.6,84,72,56,29.94,29.66,14,1,14,0.00
2013-3-17,41.4,38.4,33.7,34.4,31.4,26.1,92,76,61,30.28,29.92,10,1,10,0.00
2013-3-18,39.9,37.7,36.1,37.5,30.6,21.6,97,77,54,30.34,29.88,12,1,12,0.35
2013-3-19,58.2,46.0,38.1,42.9,34.5,15.4,98,71,25,29.92,29.71,14,1,14,0.00
2013-3-20,52.1,43.9,33.5,32.9,21.8,17.7,64,43,27,30.00,29.78,15,1,15,0.00
2013-3-21,44.3,37.0,29.8,28.5,19.7,11.4,74,50,36,29.89,29.74,10,1,11,0.00
2013-3-22,46.9,36.9,29.2,23.8,20.0,13.4,66,51,37,30.01,29.87,13,1,13,0.00
2013-3-23,52.0,38.6,28.7,28.9,25.2,22.7,80,60,38,30.03,29.91,12,1,12,0.00
2013-3-24,43.3,37.5,30.6,33.8,26.8,23.7,90,66,49,30.01,29.68,11,1,11,0.00
2013-3-25,36.8,34.9,33.2,35.8,33.5,31.9,97,95,87,29.69,29.51,6,0,7,0.57
2013-3-26,50.5,41.5,31.5,37.9,32.9,27.9,99,74,43,29.97,29.69,8,0,8,0.20
2013-3-27,50.0,44.4,38.6,34.2,31.1,28.0,75,60,48,30.10,29.96,8,1,15,0.00
2013-3-28,50.3,43.6,35.9,35.3,31.4,28.4,78,63,44,30.22,30.08,11,1,11,0.00
2013-3-29,56.0,47.9,41.5,34.6,31.9,29.1,68,54,38,30.25,30.13,10,0,11,0.00
2013-3-30,58.6,48.0,37.4,35.9,33.6,29.8,83,60,37,30.23,30.11,8,0,8,0.00
2013-3-31,54.1,47.8,39.8,50.9,43.8,35.0,97,86,68,30.14,29.74,18,1,18,0.03
2013-4-1,65.2,51.9,40.7,48.5,42.0,24.0,100,73,41,29.98,29.71,10,1,15,0.00
2013-4-2,49.4,41.7,32.1,25.6,20.9,18.2,68,44,31,30.17,29.98,12,1,12,0.00
2013-4-3,51.3,41.1,30.3,23.0,20.0,14.5,73,45,27,30.38,30.17,11,1,12,0.00
2013-4-4,49.6,39.1,27.2,36.0,23.8,18.0,87,56,30,30.43,30.11,10,1,10,0.02
2013-4-5,65.5,50.5,38.4,40.9,34.3,25.0,97,62,26,30.11,29.80,12,1,12,0.18
2013-4-6,53.9,46.5,36.7,37.1,26.2,20.4,72,46,30,30.34,30.04,11,1,11,0.00
2013-4-7,63.0,51.3,40.7,48.4,42.2,33.5,89,72,55,30.30,29.99,18,2,18,0.00
2013-4-8,76.3,64.7,50.1,55.3,50.0,44.4,87,60,42,30.08,29.96,9,1,10,0.00
2013-4-9,86.2,72.8,59.0,59.7,55.8,52.5,80,57,37,30.06,29.91,11,1,11,0.00
2013-4-10,91.0,77.4,62.1,62.2,58.0,54.5,77,54,34,29.96,29.77,7,1,12,0.00
2013-4-11,82.1,68.0,53.9,64.6,59.0,51.9,94,75,51,29.90,29.76,18,2,18,0.00
2013-4-12,61.1,55.0,51.8,60.1,53.9,50.8,100,96,90,29.86,29.60,11,2,11,0.74
2013-4-13,66.4,55.5,44.0,51.5,45.5,40.0,99,72,43,29.94,29.75,13,1,13,0.00
2013-4-14,67.2,56.3,43.6,48.3,42.8,37.1,94,65,34,30.13,29.94,10,0,10,0.01
2013-4-15,62.1,56.7,52.8,51.3,49.6,46.9,92,78,64,30.27,30.13,11,1,11,0.02
2013-4-16,71.0,66.2,58.4,60.2,57.7,53.4,92,74,66,30.32,30.12,7,2,14,0.00
2013-4-17,75.3,65.1,57.8,63.4,58.6,55.2,97,80,65,30.24,30.11,12,1,12,0.00
2013-4-18,73.3,63.8,58.1,64.0,58.7,53.4,98,84,68,30.24,30.02,18,2,18,0.09
2013-4-19,74.3,65.1,53.4,66.2,61.7,51.9,97,89,75,30.02,29.59,12,1,12,0.63
2013-4-20,60.3,53.0,47.6,52.2,38.1,30.0,97,60,35,30.33,29.78,10,1,10,0.10
2013-4-21,54.2,47.4,40.4,35.6,29.7,24.5,71,51,36,30.60,30.33,11,1,11,0.00
2013-4-22,55.2,47.7,37.4,41.0,37.6,33.8,88,69,53,30.60,30.42,13,2,13,0.00
2013-4-23,61.3,51.9,46.9,46.6,43.6,40.3,90,74,53,30.42,30.14,12,1,12,0.00
2013-4-24,69.6,58.4,44.8,58.8,52.6,43.5,98,82,66,30.14,29.80,13,1,13,0.00
2013-4-25,65.8,55.9,46.7,57.7,39.4,31.1,77,55,30,30.30,29.94,9,1,9,0.00
2013-4-26,67.0,55.9,43.8,43.8,40.0,35.7,88,59,33,30.45,30.30,8,0,8,0.00
2013-4-27,69.4,57.2,42.1,49.0,40.8,33.8,91,59,28,30.44,30.30,8,0,8,0.00
2013-4-28,67.8,54.5,45.2,49.2,44.7,37.5,92,72,35,30.30,30.16,42,0,42,0.00
2013-4-29,58.9,56.4,54.2,57.5,54.6,44.7,100,94,60,30.17,30.07,11,0,11,0.42
2013-4-30,60.0,56.6,51.5,58.0,54.7,49.5,99,94,76,30.29,30.10,9,1,9,0.24
2013-5-1,68.8,57.3,45.0,50.9,46.2,41.6,98,70,38,30.43,30.29,10,1,10,0.00
2013-5-2,67.5,56.8,45.7,52.8,48.3,44.1,96,75,49,30.45,30.32,9,0,9,0.00
2013-5-3,64.1,55.3,46.5,48.8,45.7,43.3,98,72,50,30.40,30.31,11,1,11,0.00
2013-5-4,66.8,56.3,46.7,48.8,46.0,42.9,95,70,49,30.35,30.19,10,1,12,0.00
2013-5-5,61.2,53.2,45.4,48.9,44.5,40.4,85,73,58,30.27,30.16,10,1,10,0.00
2013-5-6,62.5,55.4,49.1,58.6,52.7,45.4,97,91,84,30.19,30.07,9,1,9,0.04
2013-5-7,63.2,59.6,57.2,62.4,59.1,56.9,100,98,96,30.09,29.95,10,1,10,0.87
2013-5-8,69.9,61.0,57.3,60.8,58.1,56.4,98,91,70,30.01,29.94,7,0,8,0.00
2013-5-9,75.4,63.3,53.0,61.6,57.9,52.5,100,84,59,29.99,29.92,6,0,6,0.05
2013-5-10,80.6,69.1,55.4,64.5,60.6,54.6,99,77,53,30.01,29.87,10,0,10,0.26
2013-5-11,77.5,67.2,63.1,68.0,64.3,62.3,99,91,64,29.94,29.71,6,0,6,0.26
2013-5-12,64.3,60.0,51.7,62.7,45.7,33.3,99,63,33,30.03,29.73,9,0,9,0.01
2013-5-13,60.2,51.9,42.5,39.3,34.3,27.9,86,54,31,30.16,30.03,10,0,10,0.00
2013-5-14,63.2,52.3,38.3,49.2,37.2,31.3,86,59,35,30.22,30.06,9,0,9,0.00
2013-5-15,75.8,65.4,56.9,65.5,56.5,49.3,89,73,59,30.08,29.68,6,0,9,0.00
2013-5-16,82.4,74.5,67.5,65.6,63.0,59.8,81,68,53,29.91,29.73,8,0,8,0.00
2013-5-17,79.8,70.9,59.2,60.3,54.6,44.7,93,60,32,30.16,29.91,7,0,7,0.00
2013-5-18,67.0,63.6,59.5,58.9,56.4,50.2,96,78,56,30.25,30.16,8,0,8,0.00
2013-5-19,70.6,64.6,59.6,66.6,63.0,58.8,100,95,85,30.22,30.10,6,0,6,0.02
2013-5-20,78.9,70.5,64.5,70.8,67.5,63.9,100,91,75,30.13,29.97,7,0,7,0.00
2013-5-21,81.6,72.7,66.2,72.8,68.9,65.6,99,89,70,30.01,29.88,6,0,6,0.00
2013-5-22,84.6,75.6,68.7,75.5,71.5,66.7,100,88,73,29.93,29.84,4,0,9,0.01
2013-5-23,79.1,72.0,65.9,71.8,68.6,63.7,98,89,74,29.91,29.76,9,0,9,0.65
2013-5-24,65.3,64.2,0.0,65.0,63.2,-7.7,99,97,61,30.13,29.72,9,0,9,0.01
2013-5-25,64.7,55.6,45.3,43.4,40.0,36.4,75,57,39,30.15,30.06,11,1,11,0.00
2013-5-26,70.7,60.3,50.3,47.4,42.2,39.0,74,53,34,30.21,30.11,8,0,8,0.00
2013-5-27,70.7,62.2,49.0,55.0,48.1,41.4,87,62,37,30.28,30.18,5,0,5,0.00
2013-5-28,75.6,66.4,59.4,68.4,62.4,54.7,99,87,77,30.21,30.07,5,0,5,0.10
2013-5-29,86.7,76.2,67.2,73.0,69.1,65.5,95,80,55,30.12,30.06,8,0,8,0.00
2013-5-30,88.1,78.9,70.5,75.0,70.3,65.7,92,76,58,30.18,30.10,8,0,8,0.00
2013-5-31,88.9,78.3,66.8,72.7,68.9,65.3,97,75,49,30.15,30.02,8,0,8,0.00
2013-6-1,88.6,79.4,69.4,74.1,69.8,65.0,88,74,56,30.04,29.91,7,0,7,0.00
2013-6-2,84.9,77.1,68.9,73.8,69.6,65.9,98,78,65,29.92,29.82,9,0,9,0.20
2013-6-3,78.1,70.7,66.1,72.1,69.0,64.4,99,95,76,29.93,29.80,4,0,4,0.52
2013-6-4,74.5,66.8,57.3,64.4,53.8,47.2,95,66,41,30.12,29.93,6,0,6,0.00
2013-6-5,76.6,67.8,55.3,60.9,56.7,53.3,96,70,47,30.19,30.06,8,0,8,0.00
2013-6-6,73.8,68.1,62.4,65.5,61.6,55.7,97,80,67,30.10,29.88,10,0,10,0.25
2013-6-7,70.5,68.5,65.7,70.5,68.4,65.5,100,100,97,29.88,29.56,7,0,7,3.55
2013-6-8,77.3,69.6,64.2,68.0,65.7,64.1,100,89,64,30.09,29.67,4,0,4,0.01
2013-6-9,78.2,71.5,63.6,70.8,66.6,61.5,98,85,68,30.20,30.08,8,0,8,0.01
2013-6-10,77.1,72.5,69.0,75.0,71.5,68.1,100,97,86,30.11,29.80,11,0,11,1.88
2013-6-11,82.0,73.9,66.8,71.1,68.0,66.2,100,83,62,29.84,29.75,10,0,10,0.01
2013-6-12,72.6,71.3,69.2,67.2,66.3,65.5,88,84,81,29.84,29.83,1,0,1,0.00
2013-6-13,84.5,77.5,69.3,74.0,70.8,60.6,98,81,64,29.67,29.45,9,0,9,0.22
2013-6-14,76.6,68.3,59.6,61.2,58.6,55.0,97,73,49,29.96,29.56,12,0,12,0.07
2013-6-15,80.9,71.4,59.9,63.1,59.9,56.8,94,69,44,30.07,29.95,81,0,81,0.00
2013-6-16,81.8,73.2,63.7,71.1,66.1,60.3,94,79,63,30.03,29.87,6,0,6,0.00
2013-6-17,85.4,77.1,68.8,74.2,69.9,64.8,91,79,61,29.95,29.86,7,0,7,0.00
2013-6-18,77.9,71.4,63.8,72.7,69.1,63.4,99,93,81,29.92,29.78,8,0,8,0.44
2013-6-19,75.1,68.8,63.4,64.7,62.2,57.0,100,81,54,30.16,29.87,7,0,7,0.00
2013-6-20,77.6,70.6,62.0,65.3,61.3,56.7,97,74,52,30.28,30.16,7,0,7,0.00
2013-6-21,79.4,70.4,58.2,65.8,59.6,43.8,95,71,31,30.31,30.24,9,0,11,0.00
2013-6-22,83.2,74.3,63.8,70.5,66.8,62.7,98,79,58,30.26,30.15,9,0,9,0.00
2013-6-23,80.3,73.8,67.5,75.9,71.0,65.6,98,91,83,30.20,30.07,5,0,5,0.11
2013-6-24,89.1,78.1,71.3,78.3,73.1,69.9,99,86,62,30.12,29.99,5,0,6,0.01
2013-6-25,90.3,80.2,69.0,75.8,72.1,65.7,99,78,56,30.04,29.88,9,0,9,0.09
2013-6-26,88.7,76.9,67.6,78.2,72.0,67.1,100,86,63,29.93,29.80,7,0,8,0.24
2013-6-27,81.8,74.9,69.2,76.0,72.4,68.9,100,92,80,29.83,29.60,12,0,12,0.02
2013-6-28,86.2,75.8,69.8,75.6,71.6,68.9,99,88,65,29.63,29.48,8,0,8,0.12
2013-6-29,86.0,76.7,67.2,76.2,70.6,64.8,100,83,52,29.70,29.52,6,0,6,0.00
2013-6-30,81.3,76.1,72.8,76.5,74.3,70.9,100,94,81,29.85,29.69,81,0,81,0.60
2013-7-1,80.5,76.2,72.0,76.4,74.3,71.5,99,94,85,29.99,29.84,11,0,11,0.01
2013-7-2,81.4,76.1,72.6,76.0,73.6,71.4,97,92,81,30.19,29.99,9,0,9,0.03
2013-7-3,83.7,76.5,71.7,78.8,74.0,70.7,100,92,78,30.24,30.17,6,0,6,0.43
2013-7-4,85.5,79.3,73.3,77.9,75.2,72.7,99,88,74,30.26,30.17,8,0,8,0.00
2013-7-5,87.9,81.1,74.0,76.9,74.7,72.8,96,82,65,30.23,30.12,8,0,8,0.00
2013-7-6,91.2,83.1,75.4,78.4,75.1,72.5,94,78,59,30.19,30.06,7,0,7,0.00
2013-7-7,90.5,80.8,73.1,77.7,73.8,69.9,92,80,61,30.11,29.98,8,0,9,0.00
2013-7-8,84.7,77.9,71.9,74.0,71.5,69.8,96,82,64,30.10,30.03,12,0,12,0.00
2013-7-9,83.3,78.3,73.1,76.7,73.9,70.7,94,87,76,30.10,30.00,5,0,5,0.00
2013-7-10,86.8,79.7,73.7,78.7,75.6,71.9,96,88,72,30.01,29.85,9,0,9,0.01
2013-7-11,74.0,73.8,73.7,72.3,72.0,71.7,95,94,93,29.89,29.83,2,0,2,0.00
2013-7-12,70.8,69.3,67.3,70.7,69.0,66.7,100,99,97,30.00,29.94,8,0,8,1.17
2013-7-13,83.6,75.3,68.0,76.5,72.4,68.0,100,92,77,30.28,30.00,5,0,5,0.26
2013-7-14,86.3,79.3,73.5,78.3,75.4,72.1,100,89,72,30.34,30.27,8,0,8,0.01
2013-7-15,90.5,81.9,71.9,78.3,75.2,71.3,100,82,60,30.31,30.17,4,0,4,0.00
2013-7-16,92.6,84.2,77.8,76.9,75.0,71.3,91,75,52,30.23,30.15,6,0,6,0.00
2013-7-17,93.0,83.6,74.1,77.8,74.9,71.9,94,77,54,30.20,30.08,5,0,5,0.00
2013-7-18,94.6,85.2,76.1,82.6,78.1,74.1,95,80,61,30.11,29.99,7,0,7,0.00
2013-7-19,94.3,86.2,79.2,81.3,78.7,73.3,94,79,61,30.00,29.86,6,0,6,0.00
2013-7-20,92.0,83.4,75.3,78.8,76.2,73.6,95,80,59,29.89,29.77,7,0,7,0.04
2013-7-21,89.3,77.7,72.3,76.8,73.8,70.5,100,89,63,29.94,29.87,7,0,7,0.62
2013-7-22,85.6,79.3,73.1,78.3,75.6,73.1,100,89,74,29.92,29.75,7,0,7,0.00
2013-7-23,85.9,78.3,72.4,76.2,73.1,70.6,100,85,65,29.77,29.63,6,0,6,0.22
2013-7-24,81.9,76.6,70.7,71.9,69.0,60.8,94,78,62,29.91,29.67,4,0,4,0.00
2013-7-25,76.5,70.2,63.5,66.4,61.4,55.7,89,74,66,30.02,29.91,9,0,10,0.00
2013-7-26,81.1,73.4,65.4,68.0,64.8,61.7,92,75,52,30.09,30.02,8,0,8,0.00
2013-7-27,82.3,75.2,68.7,73.1,69.4,64.9,94,83,69,30.06,29.93,10,0,10,0.00
2013-7-28,83.3,76.6,70.9,75.6,71.4,67.5,92,84,71,29.98,29.88,5,0,5,0.00
2013-7-29,81.8,73.9,65.4,71.3,61.0,55.7,92,66,43,30.16,29.96,5,0,5,0.00
2013-7-30,81.8,72.4,61.9,65.3,61.6,58.4,92,71,47,30.23,30.14,6,0,6,0.00
2013-7-31,81.2,73.3,65.6,71.0,67.5,63.8,96,83,65,30.16,30.02,7,0,7,0.00
2013-8-1,79.8,72.9,68.0,74.4,71.0,67.0,100,94,80,30.02,29.80,4,0,4,0.35
2013-8-2,84.8,76.0,67.0,71.4,68.8,66.0,99,80,54,29.96,29.84,5,0,5,0.00
2013-8-3,75.2,70.8,67.7,70.6,67.8,66.0,96,90,79,29.97,29.91,2,0,2,0.01
2013-8-4,80.4,71.9,64.2,66.2,61.3,55.5,97,72,48,30.02,29.89,7,0,7,0.00
2013-8-5,77.0,69.3,60.0,63.8,60.0,56.1,88,73,56,30.10,30.01,5,0,7,0.00
2013-8-6,72.9,69.6,66.3,68.4,66.1,62.4,94,89,83,30.09,30.01,7,0,7,0.00
2013-8-7,80.5,74.7,70.2,74.6,71.4,68.1,95,90,80,30.08,30.00,9,0,9,0.00
2013-8-8,85.5,77.7,73.1,77.0,74.1,71.6,99,89,72,30.05,29.98,10,0,10,0.24
2013-8-9,88.0,79.3,75.3,79.8,76.2,73.8,98,90,69,29.98,29.84,5,0,5,0.19
2013-8-10,81.4,75.8,70.3,73.9,69.7,65.3,98,82,62,30.09,29.93,0,0,0,0.00
2013-8-11,81.8,75.1,68.9,73.0,69.7,67.3,97,84,68,30.12,30.01,5,0,5,0.00
2013-8-12,84.9,77.3,70.3,75.1,72.3,69.1,99,85,69,30.03,29.91,7,0,7,0.00
2013-8-13,82.2,76.8,71.2,74.9,72.8,69.7,98,88,71,29.91,29.73,5,0,5,0.30
2013-8-14,74.8,68.4,60.9,70.6,56.7,51.2,98,67,52,30.09,29.79,7,0,9,0.00
2013-8-15,75.6,66.8,56.2,58.0,55.2,51.5,93,69,44,30.19,30.09,6,0,8,0.00
2013-8-16,77.5,67.5,56.9,62.0,58.4,54.6,97,75,47,30.20,30.13,7,0,7,0.00
2013-8-17,77.7,69.3,59.0,65.0,61.2,57.7,97,77,54,30.28,30.19,8,0,8,0.00
2013-8-18,71.6,68.9,66.6,66.4,64.2,60.7,97,85,71,30.23,30.16,7,0,7,0.05
2013-8-19,75.1,69.1,63.1,68.6,65.4,61.9,97,89,78,30.18,30.07,5,0,5,0.00
2013-8-20,83.9,73.7,62.9,74.0,69.0,62.2,100,86,70,30.16,30.09,7,0,7,0.00
2013-8-21,86.6,77.3,69.4,76.4,72.9,68.8,99,87,68,30.20,30.06,7,0,7,0.00
2013-8-22,88.3,79.0,71.2,74.5,71.4,69.2,99,79,55,30.09,29.92,6,0,6,0.01
2013-8-23,77.9,72.2,64.2,70.3,66.1,60.3,91,81,68,30.11,29.93,7,0,7,0.00
2013-8-24,80.6,70.5,60.9,67.9,61.5,56.3,94,75,45,30.34,30.11,10,0,10,0.00
2013-8-25,78.5,69.5,59.7,65.0,59.0,51.0,99,72,41,30.42,30.27,6,0,6,0.00
2013-8-26,86.7,74.3,62.5,67.9,63.3,58.3,88,70,46,30.30,29.99,7,0,7,0.00
2013-8-27,89.2,79.3,72.1,75.2,71.0,67.1,90,77,58,29.99,29.87,5,0,5,0.00
2013-8-28,82.7,76.0,72.1,75.6,72.6,70.5,98,90,73,29.91,29.81,5,0,5,0.08
2013-8-29,82.9,75.7,71.2,72.8,71.4,68.8,99,87,65,30.03,29.84,8,0,9,0.02
2013-8-30,85.6,76.1,68.7,74.7,70.7,66.6,95,84,64,30.04,29.89,7,0,7,0.00
2013-8-31,89.0,78.8,70.5,76.3,73.0,69.3,96,83,65,29.91,29.79,7,0,7,0.00
2013-9-1,87.5,79.0,70.2,76.8,73.5,68.7,96,84,69,29.85,29.76,8,0,8,0.00
2013-9-2,89.3,79.2,71.5,80.6,73.3,70.7,99,83,57,29.80,29.71,7,0,7,0.02
2013-9-3,84.9,78.2,70.5,73.7,66.4,57.7,94,69,48,29.95,29.72,7,0,7,0.00
2013-9-4,82.2,71.1,60.1,65.3,58.6,52.5,88,67,36,30.07,29.94,6,0,8,0.00
2013-9-5,83.3,73.3,63.3,65.6,61.3,53.8,89,68,47,30.13,29.99,9,0,9,0.00
2013-9-6,74.0,66.1,59.4,55.8,51.4,46.2,80,60,43,30.26,30.12,8,0,8,0.00
2013-9-7,80.0,67.4,54.3,65.3,59.0,51.7,93,76,49,30.15,29.93,7,0,7,0.00
2013-9-8,86.4,75.0,66.2,69.4,65.7,58.3,96,74,54,30.06,29.86,10,0,10,0.00
2013-9-9,76.7,70.3,61.1,70.1,60.5,52.5,88,71,60,30.20,30.06,7,0,7,0.00
2013-9-10,87.5,78.5,70.4,77.3,73.2,69.0,96,84,70,30.18,30.07,7,0,7,0.00
2013-9-11,91.1,81.1,73.3,78.7,74.9,72.1,97,82,65,30.14,30.00,8,0,8,0.00
2013-9-12,89.3,75.7,69.6,76.2,71.4,67.7,99,88,60,30.00,29.74,6,0,18,0.43
2013-9-13,76.3,69.5,64.0,70.0,61.7,53.7,100,79,48,29.92,29.69,8,0,8,0.04
2013-9-14,67.7,61.2,53.8,54.8,50.9,49.0,88,70,53,30.17,29.92,7,0,7,0.01
2013-9-15,74.8,62.4,49.7,61.4,54.8,48.3,96,78,49,30.25,30.10,7,0,7,0.00
2013-9-16,71.8,65.4,59.3,61.9,58.8,55.2,95,80,60,30.24,30.04,80,0,80,0.01
2013-9-17,65.5,58.5,50.9,55.7,48.0,43.1,88,69,47,30.43,30.23,9,0,9,0.00
2013-9-18,68.0,58.0,47.5,54.0,49.8,45.2,97,77,45,30.35,30.20,6,0,6,0.00
2013-9-19,74.8,62.3,49.4,61.4,56.1,48.0,98,81,60,30.21,30.08,7,0,7,0.01
2013-9-20,77.2,65.5,53.5,64.0,59.6,52.3,99,82,61,30.10,29.97,6,0,6,0.00
2013-9-21,76.1,67.1,60.5,68.0,63.6,59.0,99,89,71,29.99,29.68,8,0,8,0.78
2013-9-22,71.7,64.2,57.7,63.5,57.5,51.3,100,80,57,29.94,29.71,7,0,7,0.01
2013-9-23,66.3,58.5,51.7,51.7,48.6,44.1,91,71,52,30.09,29.94,7,0,7,0.00
2013-9-24,71.2,58.3,46.7,54.3,49.2,45.0,95,74,45,30.11,29.94,6,0,6,0.00
2013-9-25,74.8,59.9,48.7,58.0,52.0,47.0,96,78,41,29.98,29.88,6,0,6,0.00
2013-9-26,73.7,62.6,54.6,59.9,55.5,53.2,96,80,51,30.08,29.92,6,0,6,0.00
2013-9-27,70.5,62.5,56.2,60.8,57.7,54.4,97,85,64,30.25,30.08,8,0,8,0.00
2013-9-28,70.0,62.6,56.2,59.3,56.6,54.6,96,82,62,30.31,30.22,8,0,8,0.00
2013-9-29,71.3,61.1,52.6,60.9,55.9,51.5,98,84,60,30.22,30.07,6,0,6,0.00
2013-9-30,74.4,61.7,52.0,59.2,55.6,51.0,98,82,55,30.10,29.99,4,0,4,0.00
2013-10-1,79.4,66.1,54.9,66.1,60.5,53.5,96,83,59,30.07,29.96,5,0,6,0.00
2013-10-2,84.0,71.2,61.1,66.3,62.7,58.9,94,76,51,30.08,29.99,4,0,4,0.00
2013-10-3,79.3,70.4,61.2,70.4,65.3,59.6,96,84,70,30.12,30.04,4,0,4,0.00
2013-10-4,85.1,71.9,61.7,71.5,66.8,60.7,99,85,60,30.09,30.00,5,0,5,0.00
2013-10-5,85.2,74.5,66.4,71.4,68.2,64.7,96,82,61,30.09,30.00,5,0,5,0.00
2013-10-6,84.3,74.2,65.4,73.6,68.9,64.5,99,84,66,30.03,29.93,10,0,10,0.00
2013-10-7,75.7,67.1,54.9,72.4,65.3,52.5,99,94,82,30.05,29.80,13,0,13,0.64
2013-10-8,64.8,56.9,49.7,54.1,50.7,47.8,95,81,58,30.28,30.05,8,0,8,0.00
2013-10-9,60.9,57.2,54.9,54.7,52.7,50.0,94,85,76,30.32,30.20,9,0,9,0.10
2013-10-10,58.2,55.1,54.0,58.1,54.5,53.3,100,98,93,30.20,29.97,8,0,9,2.54
2013-10-11,63.7,60.9,58.1,63.3,60.7,58.1,100,100,96,30.00,29.92,10,0,10,2.12
2013-10-12,65.7,62.4,60.4,62.6,60.9,58.2,99,95,80,30.17,29.98,10,0,10,1.51
2013-10-13,64.6,60.8,56.8,60.7,58.6,54.4,99,93,80,30.34,30.16,12,1,12,0.32
2013-10-14,66.0,60.1,53.5,58.1,55.7,52.4,96,86,71,30.34,30.23,4,0,8,0.00
2013-10-15,69.1,59.0,50.8,58.0,53.2,47.1,100,83,48,30.25,30.08,6,0,6,0.00
2013-10-16,67.0,62.9,59.8,63.5,60.5,57.4,97,92,87,30.09,29.91,3,0,3,0.00
2013-10-17,73.9,65.8,60.3,66.7,63.2,59.7,100,92,76,29.92,29.73,6,0,7,0.00
2013-10-18,66.1,57.9,50.2,60.7,49.5,46.4,94,75,51,30.02,29.80,7,0,7,0.00
2013-10-19,63.4,55.6,46.5,59.6,51.9,45.3,98,88,64,30.00,29.78,9,0,9,0.00
2013-10-20,62.4,53.9,46.2,51.4,43.0,39.2,93,68,44,30.11,29.85,7,0,7,0.01
2013-10-21,66.0,53.6,42.1,50.4,46.0,40.8,98,78,44,30.16,29.97,9,0,9,0.00
2013-10-22,63.1,55.9,48.6,54.3,50.0,45.9,95,81,64,29.98,29.82,3,0,3,0.00
2013-10-23,57.1,50.3,45.4,46.3,42.4,38.2,96,75,54,29.89,29.64,5,0,5,0.05
2013-10-24,52.8,45.4,37.9,39.6,34.8,29.4,94,68,45,30.14,29.88,7,0,7,0.00
2013-10-25,55.3,45.0,36.5,38.6,35.0,33.0,92,69,47,30.33,30.13,8,0,8,0.00
2013-10-26,56.7,44.5,34.8,36.9,33.7,31.3,92,69,42,30.31,29.94,11,0,11,0.00
2013-10-27,59.5,49.7,40.6,41.6,39.1,36.2,91,69,47,30.16,29.94,7,0,7,0.00
2013-10-28,62.9,48.6,37.5,49.7,42.8,35.7,96,82,55,30.29,30.16,6,0,6,0.00
2013-10-29,62.1,49.8,40.9,50.0,44.7,39.4,100,84,56,30.39,30.28,5,0,5,0.00
2013-10-30,63.4,53.9,48.2,58.3,52.2,46.5,100,94,83,30.34,30.16,5,0,6,0.11
2013-10-31,68.0,60.4,52.4,62.0,58.3,51.8,100,93,80,30.20,29.79,6,0,6,0.00
2013-11-1,71.2,66.0,57.1,65.6,62.1,56.3,98,88,71,29.79,29.60,15,1,15,0.17
2013-11-2,68.5,57.9,49.5,56.4,50.2,42.6,100,78,51,29.88,29.64,8,0,8,0.01
2013-11-3,56.9,48.9,41.1,43.8,37.2,27.9,87,66,37,30.47,29.88,9,0,9,0.00
2013-11-4,45.9,39.6,33.8,32.5,27.5,22.1,82,63,39,30.64,30.47,8,0,8,0.00
2013-11-5,57.4,48.8,37.2,49.5,43.0,32.2,88,81,69,30.62,30.47,5,0,5,0.00
2013-11-6,64.8,57.0,47.8,54.5,51.3,46.3,97,82,67,30.48,30.07,10,0,10,0.00
2013-11-7,62.1,54.8,45.8,58.2,49.3,28.5,97,82,51,30.08,29.86,9,0,9,0.01
2013-11-8,51.7,43.2,35.6,34.7,30.4,27.4,83,62,42,30.32,30.07,7,0,9,0.00
2013-11-9,54.7,44.2,32.3,34.8,31.6,28.5,92,63,41,30.36,30.03,10,0,10,0.00
2013-11-10,63.3,50.6,42.5,40.5,34.2,31.1,72,55,34,30.22,29.94,7,0,9,0.00
2013-11-11,57.4,48.4,36.1,41.7,33.8,30.9,84,58,40,30.32,30.00,10,0,10,0.00
2013-11-12,53.2,42.2,31.4,40.0,27.4,17.7,74,56,43,30.39,29.98,9,0,9,0.00
2013-11-13,44.6,35.5,29.4,26.0,22.6,18.4,75,60,42,30.47,30.38,9,0,9,0.00
2013-11-14,59.5,34.8,28.7,36.3,25.3,19.1,83,71,21,30.40,30.22,6,0,6,0.00
2013-11-15,57.7,44.1,31.3,44.1,34.4,26.5,93,70,41,30.29,30.20,5,0,6,0.00
2013-11-16,52.3,48.9,45.4,50.5,47.7,43.1,98,95,89,30.34,30.24,5,0,5,0.01
2013-11-17,63.6,55.9,50.4,59.0,54.4,50.1,100,95,83,30.25,29.76,9,0,9,0.00
2013-11-18,69.7,59.8,51.0,63.7,43.0,29.2,100,60,25,29.92,29.69,16,1,16,0.00
2013-11-19,51.3,45.5,38.7,31.5,29.6,26.8,69,54,44,30.37,29.92,9,0,9,0.00
2013-11-20,44.9,38.4,32.7,30.4,27.8,25.0,86,66,53,30.58,30.36,9,0,9,0.00
2013-11-21,49.6,41.3,31.2,41.8,35.5,28.3,91,80,68,30.58,30.40,5,0,5,0.00
2013-11-22,60.3,52.7,45.6,53.9,48.5,41.4,96,86,76,30.40,29.99,9,0,9,0.00
2013-11-23,57.8,45.5,33.3,52.7,30.5,14.7,83,57,38,30.19,30.00,12,1,12,0.00
2013-11-24,33.2,28.7,24.8,14.7,11.8,8.7,62,49,39,30.52,30.19,19,1,19,0.00
2013-11-25,37.2,29.6,21.5,19.5,14.1,11.9,73,53,36,30.58,30.36,10,1,10,0.00
2013-11-26,39.4,35.7,33.7,38.9,26.8,16.6,98,72,48,30.37,29.86,8,0,8,0.54
2013-11-27,57.5,41.6,31.0,57.5,39.8,19.5,100,94,61,30.02,29.49,14,1,14,0.78
2013-11-28,39.2,32.2,27.6,27.3,20.3,17.1,84,62,42,30.49,30.02,10,1,10,0.00
2013-11-29,43.8,33.5,25.0,28.0,24.6,22.6,92,71,46,30.73,30.47,10,0,10,0.00
2013-11-30,39.3,31.6,24.1,28.1,24.8,21.3,90,76,55,30.73,30.39,6,0,6,0.00
2013-12-1,47.3,36.9,26.1,36.7,31.0,24.3,94,80,56,30.39,30.03,7,0,7,0.00
2013-12-2,48.9,42.5,39.7,39.7,37.7,36.0,93,83,65,30.03,29.88,6,0,6,0.00
2013-12-3,58.4,45.2,37.6,41.2,37.9,35.1,94,77,52,30.01,29.88,6,0,6,0.00
2013-12-4,52.2,46.0,37.6,49.5,43.1,35.2,96,90,80,30.10,30.00,5,0,5,0.00
2013-12-5,65.1,55.8,50.2,62.6,54.1,49.1,99,94,85,30.09,29.93,11,0,11,0.00
2013-12-6,66.2,51.1,38.3,63.5,49.9,37.3,100,96,90,30.18,29.88,11,0,11,0.53
2013-12-7,44.1,38.2,31.2,37.4,32.8,25.4,97,82,64,30.54,30.12,8,0,8,0.15
2013-12-8,33.0,30.7,29.0,32.2,26.7,21.9,97,85,69,30.60,30.29,12,0,12,0.00
2013-12-9,36.2,34.2,32.6,35.4,33.6,31.8,98,98,97,30.30,30.04,6,0,6,0.31
2013-12-10,36.8,33.4,30.2,36.3,31.4,22.3,100,93,67,30.23,29.98,5,0,6,0.18
2013-12-11,32.1,30.3,28.8,23.9,22.6,20.6,81,73,68,30.32,30.23,5,0,5,0.00
2013-12-12,32.4,28.5,23.7,17.1,14.8,12.0,75,57,44,30.43,30.26,8,0,8,0.01
2013-12-13,42.7,32.8,23.4,27.1,20.9,16.3,79,63,40,30.33,30.22,11,0,11,0.04
2013-12-14,39.5,36.0,31.6,37.9,32.2,24.9,98,86,73,30.34,29.68,8,0,9,0.77
2013-12-15,46.9,38.1,33.6,39.7,32.6,24.8,98,82,60,29.95,29.62,16,1,16,0.01
2013-12-16,37.0,34.3,32.3,27.8,25.3,20.1,78,70,60,30.21,29.94,7,0,7,0.00
2013-12-17,37.3,34.6,32.1,31.7,28.9,26.1,87,80,74,30.19,29.95,8,0,8,0.00
2013-12-18,41.1,33.6,27.0,29.6,25.7,21.5,93,74,50,30.24,29.98,14,0,14,0.00
2013-12-19,59.5,40.5,25.5,37.0,30.2,23.8,100,70,37,30.22,30.07,10,0,10,0.00
2013-12-20,59.8,54.1,46.6,51.8,38.2,31.3,76,55,42,30.12,30.00,10,1,10,0.00
2013-12-21,72.8,62.4,55.8,59.0,53.2,46.6,90,72,59,30.02,29.89,20,2,20,0.00
2013-12-22,71.3,63.4,55.7,65.8,60.7,52.8,99,91,80,30.02,29.83,22,2,22,0.45
2013-12-23,63.2,54.4,39.5,61.7,51.9,31.5,100,91,70,30.24,29.93,10,0,10,0.51
2013-12-24,40.9,34.7,25.0,31.9,24.1,11.2,86,66,46,30.47,30.19,15,1,15,0.00
2013-12-25,33.5,26.2,20.3,21.1,16.2,12.8,87,66,47,30.58,30.40,6,0,6,0.00
2013-12-26,45.6,32.4,24.3,28.9,25.2,20.9,90,76,49,30.40,30.22,9,0,9,0.00
2013-12-27,50.8,35.9,25.6,29.5,25.1,21.2,90,68,32,30.43,30.32,9,0,9,0.00
2013-12-28,59.4,42.3,29.8,35.7,29.6,24.7,83,63,33,30.34,30.11,8,0,8,0.00
2013-12-29,47.8,44.7,40.3,46.6,41.1,31.5,99,88,54,30.12,29.52,11,0,11,1.10
2013-12-30,46.0,38.7,33.4,41.0,33.0,22.3,99,81,63,30.20,29.82,8,0,8,0.00
2013-12-31,45.4,35.0,27.8,32.0,24.1,19.8,79,65,47,30.35,30.11,13,1,13,0.00
2014-1-1,43.6,34.6,26.6,35.3,27.5,21.6,93,76,59,30.43,30.15,10,1,10,0.00
2014-1-2,36.9,33.4,28.6,34.7,31.9,27.2,97,94,90,30.15,29.61,9,0,9,0.01